User: anonymous   Login
Location: Unspecified
(0.0000°N, 0.0000°E)
Time: 03:48:38
(UTC+00:00)
Language:

ISS - Orbit

View from above orbital plane
View from above orbital plane
View from above satellite
View from above satellite

Ground track
Ground track

The orbit data is extracted from the following two-line orbital elements,

1 25544U 98067A   17180.51088504  .00016717  00000-0  10270-3 0  9016
2 25544  51.6397 336.9033 0004804 335.5840  24.5085 15.54096980 23662
Epoch (UTC): 29 June 2017 12:15:40
Eccentricity: 0.0004804
inclination: 51.6397°
perigee height: 401 km
apogee height: 408 km
right ascension of ascending node: 336.9033°
argument of perigee: 335.5840°
revolutions per day: 15.54096980
mean anomaly at epoch: 24.5085°
orbit number at epoch: 2366

The dashed part of the orbit path shows where the satellite is in the earth's shadow,  

DLR